Weather in Omdurman

Sudan     15°39′40″N   32°25′22″E
temp.,
°C
wind,
m/s
gust,
m/s
humid.,
%
clouds,
%
prec.,
mm/h
press.,
hPa
HPBL,
m
19 september, sun
sun1923:00+35wnw33148 0.0 1009124
02:00+31sw573888 0.0 1008343
05:00+30wsw453695 0.0 1010254
08:00+32w321914 0.0 1011606
11:00+35wnw11125 0.0 10101346
14:00+37nnw121010 0.0 10072107
17:00+38n121174 0.0 10072677
20:00+37nne231313 0.0 1008768
20 september, mon
mon2023:00+35nw22155 0.0 1009109
02:00+33n46175 0.0 1008153
05:00+31n351964 0.0 1009131
08:00+33n341654 0.0 1010428
11:00+37nne45126 0.0 10091646
14:00+39nne341127 0.0 10062500
17:00+39nne44115 0.0 10052809
20:00+38n23125 0.0 1007514
21 september, tue
tue2123:00+35nnw45145 0.0 1007140
02:00+33n46160 0.0 1007168
05:00+31nne46178 0.0 1008171
08:00+33nne351452 0.0 1009364
11:00+38n44115 0.0 10081565
14:00+40nne231040 0.0 10052962
17:00+40ene1311100 0.0 10043738
20:00+39s22125 0.0 1005215
22 september, wed
wed2223:00+37wsw341438 0.0 1006175
02:00+35sw33165 0.0 1006147
05:00+32sw56313 0.0 1007202
08:00+33wsw66320 0.0 1008482
11:00+38w44145 0.0 10071572
14:00+40w33105 0.0 10042320
17:00+40wsw2295 0.0 10032859
20:00+39ssw44107 0.0 1005426
23 september, thu
thu2323:00+36ssw6921100 0.0 1005410
02:00+31s9125240 0.0 1006742
05:00+30ssw10145035 0.0 1007639
08:00+31ssw810468 0.0 1008699
11:00+36ssw76281 0.0 10071549
14:00+39ssw652161 0.0 10042102
17:00+39s43205 0.0 10032686
20:00+37s56230 0.0 1005808